Location: Newark
(43.0000°N, 1.6781°W)
Time: 19:51:05
(UTC+00:00)

XW-2C - Visible Passes

Search period start: 07 December 2023 00:00
Search period end: 17 December 2023 00:00
Orbit: 463 x 474 km, 97.5° (Epoch: 07 December)

Date Brightness Start Highest point End Pass type
(mag) Time Alt. Az. Time Alt. Az. Time Alt. Az.
07 Dec ? 06:42:50 10° NNE 06:46:24 81° ESE 06:49:55 10° S visible
07 Dec ? 17:17:31 10° SE 17:20:40 32° ENE 17:23:52 10° N visible
07 Dec ? 18:51:44 10° SW 18:53:53 15° W 18:56:03 10° NW visible
08 Dec ? 06:14:00 10° NNE 06:17:12 32° E 06:20:23 10° SSE visible
08 Dec ? 18:21:21 10° SSW 18:24:35 34° W 18:27:51 10° NNW visible
09 Dec ? 05:45:54 10° ENE 05:47:53 14° E 05:49:51 10° SE visible
09 Dec ? 17:51:51 10° SSE 17:55:22 87° WSW 17:58:55 10° NNW visible
10 Dec ? 06:48:29 10° NNE 06:52:02 86° WNW 06:55:33 10° SSW visible
10 Dec ? 17:22:59 10° SE 17:26:15 37° ENE 17:29:34 10° N visible
10 Dec ? 18:57:46 10° WSW 18:59:32 13° W 19:01:19 10° WNW visible
11 Dec ? 06:19:30 10° NNE 06:22:48 37° E 06:26:05 10° SSE visible
11 Dec ? 18:27:01 10° SSW 18:30:08 29° W 18:33:17 10° NW visible
12 Dec ? 05:51:07 10° NE 05:53:25 16° E 05:55:43 10° SE visible
12 Dec ? 17:57:20 10° S 18:00:50 74° W 18:04:23 10° NNW visible
13 Dec ? 06:53:56 10° N 06:57:27 73° WNW 07:00:57 10° SSW visible
13 Dec ? 17:28:17 10° SE 17:31:37 43° ENE 17:35:01 10° N visible
13 Dec ? 19:03:44 10° WSW 19:04:58 11° W 19:06:13 10° WNW visible
14 Dec ? 06:24:47 10° NNE 06:28:10 43° E 06:31:31 10° S visible
14 Dec ? 16:59:56 10° ESE 17:02:32 19° ENE 17:05:08 10° NNE visible
14 Dec ? 18:32:29 10° SSW 18:35:28 26° W 18:38:29 10° NW visible
15 Dec ? 05:56:10 10° NE 05:58:44 19° E 06:01:16 10° SE visible
15 Dec ? 18:02:36 10° S 18:06:05 63° W 18:09:36 10° NNW visible
16 Dec ? 17:33:22 10° SSE 17:36:47 50° ENE 17:40:13 10° N visible
